DLH92C EDDM-RJBB

Flight info

Callsign DLH92C
Flight time N/A
Altitude 23000
Route KIRDI4N KIRDI DCT BUWOQ DCT OBFEZ DCT STEIN DCT TEGRI DCT DINRO/N0486F370 DCT UDROS UM859 KARDE UN644 ROLIN DCT TAGAR DCT BT DCT BARAD M747 SUBUT T916 LEYLA N161 GASBI/K0893F370 N161 ABDUN/K0891F390 N161 SARIN/K0885S1190 A368 FKG W188 LIKMI W270 BUVEM/K0883S1250 W270 DKO W69 HUR B339 LADIX W34 VAPGU W100 ORAVA W201 UNSEK A326 DONVO G597 AGAVO/N0482F410 Y644 EGOBA Y697 LANAT Y597 MIHOU Y361 SAEKI Y36 ATMUG
Aircraft A359/H-SADE2E3GHIJ1J2J3J4J5M1P2RWXYZ/LB1D1

Departure

Time N/A
Airport Munich Airport (EDDM)

Arrival

Time 2026-05-05 09:20
Airport Kansai International Airport (RJBB)
Time Latitude Longitude Altitude Speed Heading
2026-05-05 08:17 37.53271 127.65930 41031 ft 531 kts 79°
2026-05-05 08:18 37.54685 127.75055 41021 ft 531 kts 79°
2026-05-05 08:18 37.56119 127.84194 41029 ft 532 kts 79°
2026-05-05 08:19 37.57555 127.93332 41017 ft 531 kts 79°
2026-05-05 08:19 37.58984 128.02464 41013 ft 532 kts 79°
2026-05-05 08:20 37.60409 128.11630 41008 ft 533 kts 79°
2026-05-05 08:20 37.61830 128.20796 41005 ft 532 kts 79°
2026-05-05 08:21 37.63240 128.29976 41001 ft 532 kts 79°
2026-05-05 08:21 37.64640 128.39150 40994 ft 532 kts 79°
2026-05-05 08:22 37.66034 128.48334 40986 ft 532 kts 79°
2026-05-05 08:22 37.67415 128.57462 40984 ft 532 kts 79°
2026-05-05 08:23 37.68729 128.66644 40956 ft 531 kts 84°
2026-05-05 08:23 37.68466 128.75899 40967 ft 527 kts 104°
2026-05-05 08:24 37.67413 128.80309 40965 ft 523 kts 115°
2026-05-05 08:24 37.65815 128.84408 40967 ft 520 kts 122°
2026-05-05 08:24 37.62148 128.92265 40961 ft 519 kts 125°
2026-05-05 08:25 37.58340 129.00015 40967 ft 520 kts 126°
2026-05-05 08:25 37.54548 129.07779 40969 ft 520 kts 125°
2026-05-05 08:26 37.50781 129.15564 40965 ft 520 kts 125°
2026-05-05 08:26 37.47018 129.23352 40974 ft 521 kts 125°
2026-05-05 08:27 37.43277 129.31083 40972 ft 521 kts 125°
2026-05-05 08:27 37.39508 129.38861 40976 ft 521 kts 126°
2026-05-05 08:28 37.35723 129.46634 40986 ft 521 kts 126°
2026-05-05 08:28 37.31935 129.54399 40990 ft 522 kts 126°
2026-05-05 08:29 37.28138 129.62168 40996 ft 522 kts 126°
2026-05-05 08:30 37.22430 129.73815 41006 ft 523 kts 126°
2026-05-05 08:30 37.18615 129.81576 40993 ft 522 kts 126°
2026-05-05 08:31 37.14796 129.89342 41019 ft 523 kts 126°
2026-05-05 08:31 37.10960 129.97107 41024 ft 523 kts 126°
2026-05-05 08:32 37.07120 130.04856 41020 ft 523 kts 127°
2026-05-05 08:32 37.03275 130.12600 41031 ft 524 kts 127°
2026-05-05 08:33 36.99445 130.20299 41035 ft 524 kts 127°
2026-05-05 08:33 36.95659 130.27894 41033 ft 524 kts 127°
2026-05-05 08:34 36.91801 130.35617 41047 ft 525 kts 127°
2026-05-05 08:34 36.87932 130.43342 41052 ft 525 kts 127°
2026-05-05 08:35 36.84056 130.51066 41057 ft 525 kts 127°
2026-05-05 08:35 36.80164 130.58801 41056 ft 526 kts 127°
2026-05-05 08:36 36.76276 130.66512 41069 ft 526 kts 128°
2026-05-05 08:36 36.72378 130.74231 41070 ft 526 kts 128°
2026-05-05 08:37 36.68475 130.81937 41067 ft 526 kts 128°
2026-05-05 08:37 36.64568 130.89632 41069 ft 526 kts 128°
2026-05-05 08:38 36.60655 130.97323 41073 ft 526 kts 128°
2026-05-05 08:38 36.56732 131.05016 41083 ft 526 kts 128°
2026-05-05 08:39 36.52807 131.12697 41087 ft 526 kts 128°
2026-05-05 08:39 36.48872 131.20378 41084 ft 527 kts 128°
2026-05-05 08:40 36.44956 131.28006 41092 ft 527 kts 128°
2026-05-05 08:40 36.41007 131.35683 41084 ft 527 kts 129°
2026-05-05 08:41 36.37051 131.43354 41096 ft 528 kts 129°
2026-05-05 08:41 36.33161 131.51100 41096 ft 530 kts 127°
2026-05-05 08:42 36.29328 131.58900 41102 ft 530 kts 128°
2026-05-05 08:42 36.25477 131.66696 41107 ft 531 kts 128°
2026-05-05 08:43 36.21606 131.74477 41106 ft 531 kts 128°
2026-05-05 08:43 36.17721 131.82251 41110 ft 531 kts 128°
2026-05-05 08:44 36.13827 131.90025 41116 ft 532 kts 128°
2026-05-05 08:44 36.10585 131.96487 41119 ft 532 kts 128°
2026-05-05 08:45 36.06687 132.04259 41118 ft 532 kts 129°
2026-05-05 08:45 36.02767 132.12019 41123 ft 532 kts 129°
2026-05-05 08:46 35.98843 132.19774 41112 ft 533 kts 129°
2026-05-05 08:46 35.94909 132.27536 41122 ft 534 kts 129°
2026-05-05 08:47 35.90966 132.35302 41122 ft 535 kts 129°
2026-05-05 08:47 35.87010 132.43077 41134 ft 535 kts 129°
2026-05-05 08:48 35.83045 132.50852 41139 ft 536 kts 129°
2026-05-05 08:48 35.79067 132.58635 41140 ft 537 kts 129°
2026-05-05 08:49 35.75085 132.66410 41138 ft 537 kts 130°
2026-05-05 08:49 35.71111 132.74213 41135 ft 538 kts 129°
2026-05-05 08:50 35.67140 132.82024 41128 ft 538 kts 130°
2026-05-05 08:50 35.63155 132.89818 41123 ft 538 kts 130°
2026-05-05 08:51 35.59167 132.97600 41118 ft 538 kts 130°
2026-05-05 08:51 35.55173 133.05380 41112 ft 539 kts 130°
2026-05-05 08:52 35.51569 133.13536 41099 ft 548 kts 123°
2026-05-05 08:52 35.48338 133.22023 41099 ft 549 kts 121°
2026-05-05 08:53 35.45165 133.30556 41101 ft 550 kts 122°
2026-05-05 08:53 35.41978 133.39092 41111 ft 551 kts 122°
2026-05-05 08:54 35.38773 133.47613 41119 ft 551 kts 122°
2026-05-05 08:54 35.35550 133.56141 41137 ft 552 kts 122°
2026-05-05 08:55 35.32344 133.64601 41133 ft 552 kts 122°
2026-05-05 08:55 35.30729 133.68858 40809 ft 550 kts 122°
2026-05-05 08:55 35.29115 133.73103 40064 ft 552 kts 123°
2026-05-05 08:55 35.27490 133.77365 39380 ft 553 kts 123°
2026-05-05 08:56 35.25859 133.81640 38681 ft 554 kts 123°
2026-05-05 08:56 35.24228 133.85913 37908 ft 554 kts 124°
2026-05-05 08:56 35.22571 133.90143 37232 ft 548 kts 128°
2026-05-05 08:56 35.20581 133.94037 36578 ft 531 kts 138°
2026-05-05 08:57 35.18201 133.97379 35897 ft 512 kts 148°
2026-05-05 08:57 35.15496 134.00083 35215 ft 493 kts 159°
2026-05-05 08:57 35.12576 134.02103 34517 ft 474 kts 169°
2026-05-05 08:57 35.09535 134.03452 33743 ft 455 kts 179°
2026-05-05 08:58 35.06492 134.04261 33054 ft 445 kts 182°
2026-05-05 08:58 35.03409 134.04908 32364 ft 454 kts 183°
2026-05-05 08:58 35.00256 134.05495 31623 ft 460 kts 182°
2026-05-05 08:58 34.97099 134.06080 31017 ft 457 kts 182°
2026-05-05 08:59 34.93974 134.06676 30453 ft 453 kts 182°
2026-05-05 08:59 34.90870 134.07217 29802 ft 448 kts 183°
2026-05-05 08:59 34.87791 134.07700 29204 ft 443 kts 183°
2026-05-05 08:59 34.84741 134.08160 28631 ft 443 kts 182°
2026-05-05 09:00 34.81632 134.08615 28030 ft 454 kts 182°
2026-05-05 09:00 34.78513 134.09087 27449 ft 450 kts 181°
2026-05-05 09:00 34.75426 134.09573 26848 ft 445 kts 181°
2026-05-05 09:00 34.72370 134.10062 26276 ft 440 kts 180°
2026-05-05 09:01 34.69344 134.10550 25697 ft 437 kts 180°
2026-05-05 09:01 34.66344 134.11031 25103 ft 434 kts 179°
2026-05-05 09:01 34.63363 134.11506 24514 ft 431 kts 178°
2026-05-05 09:01 34.60398 134.11979 23914 ft 429 kts 178°
2026-05-05 09:02 34.57466 134.12669 23256 ft 432 kts 168°
2026-05-05 09:02 34.54738 134.14210 22620 ft 437 kts 150°
2026-05-05 09:02 34.52377 134.16552 22002 ft 439 kts 141°
2026-05-05 09:02 34.50197 134.19051 21379 ft 435 kts 140°
2026-05-05 09:03 34.48019 134.21579 20750 ft 432 kts 140°
2026-05-05 09:03 34.45853 134.24082 20115 ft 429 kts 140°
2026-05-05 09:03 34.43696 134.26561 19479 ft 426 kts 140°
2026-05-05 09:03 34.41550 134.29018 18849 ft 423 kts 139°
2026-05-05 09:04 34.39444 134.31489 18174 ft 422 kts 135°
2026-05-05 09:04 34.37780 134.34409 17491 ft 423 kts 117°
2026-05-05 09:04 34.36964 134.37814 16836 ft 423 kts 98°
2026-05-05 09:04 34.37096 134.41347 16224 ft 421 kts 79°
2026-05-05 09:05 34.38160 134.44610 15654 ft 417 kts 59°
2026-05-05 09:05 34.40025 134.47253 15091 ft 412 kts 40°
2026-05-05 09:05 34.42245 134.49398 14526 ft 406 kts 44°
2026-05-05 09:05 34.44088 134.51961 13902 ft 401 kts 54°
2026-05-05 09:06 34.45722 134.54680 13258 ft 397 kts 56°
2026-05-05 09:06 34.47276 134.57413 12668 ft 391 kts 57°
2026-05-05 09:06 34.48782 134.60125 12087 ft 386 kts 58°
2026-05-05 09:06 34.50265 134.62831 11387 ft 384 kts 58°
2026-05-05 09:07 34.51707 134.65483 11189 ft 368 kts 58°
2026-05-05 09:07 34.53079 134.68012 11092 ft 350 kts 58°
2026-05-05 09:07 34.54383 134.70424 10955 ft 334 kts 59°
2026-05-05 09:07 34.55627 134.72730 10838 ft 320 kts 59°
2026-05-05 09:08 34.56819 134.74944 10677 ft 307 kts 59°
2026-05-05 09:08 34.57965 134.77074 10446 ft 298 kts 59°
2026-05-05 09:08 34.59094 134.79177 10058 ft 296 kts 59°
2026-05-05 09:08 34.60214 134.81267 9680 ft 295 kts 59°
2026-05-05 09:09 34.61131 134.83441 9382 ft 292 kts 74°
2026-05-05 09:09 34.61413 134.85846 9099 ft 287 kts 91°
2026-05-05 09:09 34.61385 134.88262 8813 ft 286 kts 94°
2026-05-05 09:09 34.61320 134.90668 8528 ft 285 kts 94°
2026-05-05 09:10 34.61258 134.93066 8270 ft 283 kts 94°
2026-05-05 09:10 34.61202 134.95453 7997 ft 282 kts 94°
2026-05-05 09:10 34.61149 134.97827 7722 ft 281 kts 94°
2026-05-05 09:10 34.61098 135.00190 7437 ft 280 kts 93°
2026-05-05 09:11 34.61052 135.02546 7138 ft 278 kts 94°
2026-05-05 09:11 34.61001 135.04888 6869 ft 277 kts 94°
2026-05-05 09:11 34.60950 135.07220 6577 ft 275 kts 94°
2026-05-05 09:11 34.60899 135.09538 6280 ft 274 kts 94°
2026-05-05 09:12 34.60848 135.11840 5989 ft 272 kts 94°
2026-05-05 09:12 34.60798 135.14125 5710 ft 270 kts 94°
2026-05-05 09:12 34.60748 135.16386 5487 ft 264 kts 93°
2026-05-05 09:12 34.60701 135.18558 5359 ft 251 kts 93°
2026-05-05 09:13 34.60656 135.20622 5245 ft 239 kts 93°
2026-05-05 09:13 34.60617 135.22583 5134 ft 227 kts 93°
2026-05-05 09:13 34.60581 135.24457 5016 ft 216 kts 93°
2026-05-05 09:13 34.60547 135.26233 4919 ft 205 kts 93°
2026-05-05 09:14 34.60515 135.27889 4846 ft 194 kts 93°
2026-05-05 09:14 34.60482 135.29524 4681 ft 193 kts 93°
2026-05-05 09:14 34.60448 135.31159 4507 ft 194 kts 93°
2026-05-05 09:14 34.60415 135.32798 4320 ft 195 kts 93°
2026-05-05 09:15 34.60382 135.34443 4140 ft 194 kts 92°
2026-05-05 09:15 34.60171 135.36041 3953 ft 193 kts 112°
2026-05-05 09:15 34.59356 135.37292 3762 ft 192 kts 145°
2026-05-05 09:15 34.58096 135.37759 3492 ft 192 kts 176°
2026-05-05 09:16 34.56765 135.37736 3234 ft 191 kts 184°
2026-05-05 09:16 34.55476 135.37359 2992 ft 190 kts 199°
2026-05-05 09:16 34.54245 135.36789 2748 ft 189 kts 201°
2026-05-05 09:16 34.53028 135.36202 2494 ft 188 kts 201°
2026-05-05 09:17 34.51820 135.35625 2252 ft 186 kts 201°
2026-05-05 09:17 34.50627 135.35059 2020 ft 183 kts 201°
2026-05-05 09:17 34.49520 135.34361 1793 ft 175 kts 212°
2026-05-05 09:17 34.48669 135.33380 1580 ft 165 kts 232°
2026-05-05 09:18 34.48029 135.32292 1350 ft 152 kts 231°
2026-05-05 09:18 34.47380 135.31351 1163 ft 140 kts 226°
2026-05-05 09:18 34.46785 135.30468 980 ft 130 kts 232°
2026-05-05 09:18 34.46225 135.29618 818 ft 129 kts 230°
2026-05-05 09:19 34.45655 135.28775 665 ft 130 kts 230°
2026-05-05 09:19 34.45086 135.27929 462 ft 129 kts 231°
2026-05-05 09:19 34.44536 135.27095 300 ft 125 kts 231°
2026-05-05 09:19 34.43988 135.26277 150 ft 127 kts 231°
2026-05-05 09:20 34.43432 135.25449 30 ft 123 kts 231°
2026-05-05 09:20 34.42970 135.24760 23 ft 84 kts 231°
2026-05-05 09:20 34.42695 135.24351 21 ft 43 kts 231°
2026-05-05 09:20 34.42541 135.24121 23 ft 23 kts 233°
2026-05-05 09:21 34.42475 135.23959 23 ft 20 kts 253°
2026-05-05 09:21 34.42449 135.23802 21 ft 16 kts 260°
2026-05-05 09:21 34.42470 135.23699 28 ft 11 kts 311°
2026-05-05 09:21 34.42534 135.23645 30 ft 11 kts 345°
2026-05-05 09:22 34.42601 135.23691 31 ft 13 kts 51°
2026-05-05 09:22 34.42663 135.23785 31 ft 16 kts 51°
2026-05-05 09:22 34.42739 135.23899 29 ft 19 kts 51°
2026-05-05 09:22 34.42820 135.24017 29 ft 16 kts 51°
2026-05-05 09:23 34.42865 135.24087 31 ft 12 kts 51°
2026-05-05 09:23 34.42923 135.24173 27 ft 11 kts 50°
2026-05-05 09:23 34.42984 135.24214 30 ft 11 kts
2026-05-05 09:23 34.43049 135.24223 28 ft 8 kts
2026-05-05 09:24 34.43106 135.24194 31 ft 8 kts 322°
2026-05-05 09:24 34.43126 135.24175 29 ft 2 kts 320°
2026-05-05 09:24 34.43134 135.24167 31 ft 0 kts 321°